Time,TemperatureF,DewpointF,PressureIn,WindDirection,WindDirectionDegrees,WindSpeedMPH,WindSpeedGustMPH,Humidity,HourlyPrecipIn,Conditions,Clouds,dailyrainin,SoftwareType,DateUTC
2013-04-02 00:12:00,67.7,67.0,30.06,West,274,3.0,4.0,97,0.00,,,0.00,weatherlink.com 1.10,2013-04-02 04:12:00,
2013-04-02 00:27:00,67.8,67.0,30.06,WNW,285,3.0,4.0,97,0.00,,,0.00,weatherlink.com 1.10,2013-04-02 04:27:00,
2013-04-02 00:42:00,67.7,67.0,30.06,West,274,2.0,4.0,97,0.00,,,0.00,weatherlink.com 1.10,2013-04-02 04:42:00,
2013-04-02 00:57:00,67.6,67.0,30.05,WNW,283,1.0,5.0,97,0.00,,,0.00,weatherlink.com 1.10,2013-04-02 04:57:00,
2013-04-02 01:12:00,67.5,67.0,30.05,WNW,294,2.0,4.0,97,0.00,,,0.00,weatherlink.com 1.10,2013-04-02 05:12:00,
2013-04-02 01:28:00,67.3,67.0,30.05,NW,326,1.0,3.0,97,0.00,,,0.00,weatherlink.com 1.10,2013-04-02 05:28:00,
2013-04-02 01:42:00,67.1,66.0,30.05,West,259,1.0,1.0,97,0.00,,,0.00,weatherlink.com 1.10,2013-04-02 05:42:00,
2013-04-02 01:57:00,67.1,66.0,30.05,West,266,1.0,3.0,97,0.00,,,0.00,weatherlink.com 1.10,2013-04-02 05:57:00,
2013-04-02 02:12:00,67.1,66.0,30.05,West,276,2.0,3.0,97,0.00,,,0.00,weatherlink.com 1.10,2013-04-02 06:12:00,
2013-04-02 02:27:00,66.9,66.0,30.05,West,273,0.0,2.0,97,0.00,,,0.00,weatherlink.com 1.10,2013-04-02 06:27:00,
2013-04-02 02:42:00,67.0,66.0,30.04,WSW,256,1.0,3.0,97,0.00,,,0.00,weatherlink.com 1.10,2013-04-02 06:42:00,
2013-04-02 02:57:00,67.1,66.0,30.04,WSW,253,1.0,3.0,97,0.00,,,0.00,weatherlink.com 1.10,2013-04-02 06:57:00,
2013-04-02 03:13:00,66.8,66.0,30.04,WSW,257,3.0,3.0,97,0.00,,,0.00,weatherlink.com 1.10,2013-04-02 07:13:00,
2013-04-02 03:28:00,66.6,66.0,30.04,West,278,1.0,4.0,97,0.00,,,0.00,weatherlink.com 1.10,2013-04-02 07:28:00,
2013-04-02 03:43:00,66.3,66.0,30.04,West,259,1.0,2.0,97,0.00,,,0.00,weatherlink.com 1.10,2013-04-02 07:43:00,
2013-04-02 03:58:00,66.2,65.0,30.04,West,277,1.0,2.0,97,0.00,,,0.00,weatherlink.com 1.10,2013-04-02 07:58:00,
2013-04-02 04:13:00,66.3,66.0,30.04,SSE,150,2.0,3.0,97,0.00,,,0.00,weatherlink.com 1.10,2013-04-02 08:13:00,
2013-04-02 04:28:00,66.2,65.0,30.05,SW,217,1.0,2.0,97,0.00,,,0.00,weatherlink.com 1.10,2013-04-02 08:28:00,
2013-04-02 04:43:00,66.2,65.0,30.05,West,268,1.0,2.0,97,0.00,,,0.00,weatherlink.com 1.10,2013-04-02 08:43:00,
2013-04-02 04:58:00,66.0,65.0,30.05,WNW,287,3.0,4.0,97,0.00,,,0.00,weatherlink.com 1.10,2013-04-02 08:58:00,
2013-04-02 05:13:00,66.0,65.0,30.05,WNW,300,2.0,3.0,97,0.00,,,0.00,weatherlink.com 1.10,2013-04-02 09:13:00,
2013-04-02 05:28:00,66.0,65.0,30.05,WNW,291,1.0,3.0,97,0.00,,,0.00,weatherlink.com 1.10,2013-04-02 09:28:00,
2013-04-02 05:43:00,66.2,65.0,30.05,NW,319,3.0,4.0,96,0.00,,,0.00,weatherlink.com 1.10,2013-04-02 09:43:00,
2013-04-02 05:58:00,66.3,65.0,30.05,WNW,290,2.0,5.0,96,0.00,,,0.00,weatherlink.com 1.10,2013-04-02 09:58:00,
2013-04-02 06:13:00,66.2,65.0,30.05,NW,319,3.0,6.0,95,0.00,,,0.00,weatherlink.com 1.10,2013-04-02 10:13:00,
2013-04-02 06:28:00,66.1,64.0,30.06,WNW,285,3.0,5.0,94,0.00,,,0.00,weatherlink.com 1.10,2013-04-02 10:28:00,
2013-04-02 06:43:00,66.2,64.0,30.06,WNW,290,4.0,5.0,93,0.00,,,0.00,weatherlink.com 1.10,2013-04-02 10:43:00,
2013-04-02 06:58:00,66.1,64.0,30.07,WNW,293,2.0,4.0,93,0.00,,,0.00,weatherlink.com 1.10,2013-04-02 10:58:00,
2013-04-02 07:13:00,65.8,63.0,30.08,WNW,294,3.0,6.0,91,0.00,,,0.00,weatherlink.com 1.10,2013-04-02 11:13:00,
2013-04-02 07:28:00,65.9,63.0,30.09,WNW,290,3.0,5.0,91,0.00,,,0.00,weatherlink.com 1.10,2013-04-02 11:28:00,
2013-04-02 07:43:00,66.4,64.0,30.09,WNW,298,4.0,6.0,90,0.00,,,0.00,weatherlink.com 1.10,2013-04-02 11:43:00,
2013-04-02 07:58:00,66.6,64.0,30.10,NW,308,3.0,5.0,90,0.00,,,0.00,weatherlink.com 1.10,2013-04-02 11:58:00,
2013-04-02 08:13:00,66.8,64.0,30.10,WNW,283,3.0,7.0,90,0.00,,,0.00,weatherlink.com 1.10,2013-04-02 12:13:00,
2013-04-02 08:28:00,67.1,64.0,30.10,WNW,285,2.0,8.0,89,0.00,,,0.00,weatherlink.com 1.10,2013-04-02 12:28:00,
2013-04-02 08:43:00,67.3,64.0,30.11,WNW,293,6.0,8.0,89,0.00,,,0.00,weatherlink.com 1.10,2013-04-02 12:43:00,
2013-04-02 08:58:00,67.5,64.0,30.11,WNW,287,4.0,6.0,89,0.00,,,0.00,weatherlink.com 1.10,2013-04-02 12:58:00,
2013-04-02 09:13:00,67.7,64.0,30.11,WNW,287,2.0,9.0,89,0.00,,,0.00,weatherlink.com 1.10,2013-04-02 13:13:00,
2013-04-02 09:28:00,67.9,65.0,30.12,West,271,6.0,10.0,89,0.00,,,0.00,weatherlink.com 1.10,2013-04-02 13:28:00,
2013-04-02 09:43:00,68.1,65.0,30.12,WNW,294,4.0,7.0,89,0.00,,,0.00,weatherlink.com 1.10,2013-04-02 13:43:00,
2013-04-02 09:58:00,68.1,65.0,30.12,WNW,284,4.0,9.0,89,0.00,,,0.00,weatherlink.com 1.10,2013-04-02 13:58:00,
2013-04-02 10:13:00,68.0,65.0,30.12,WNW,294,8.0,10.0,89,0.00,,,0.00,weatherlink.com 1.10,2013-04-02 14:13:00,
2013-04-02 10:28:00,68.3,65.0,30.13,West,278,7.0,10.0,88,0.00,,,0.00,weatherlink.com 1.10,2013-04-02 14:28:00,
2013-04-02 10:43:00,68.6,64.0,30.13,WNW,288,9.0,12.0,85,0.00,,,0.00,weatherlink.com 1.10,2013-04-02 14:43:00,
2013-04-02 10:58:00,67.9,64.0,30.13,West,269,6.0,12.0,88,0.00,,,0.00,weatherlink.com 1.10,2013-04-02 14:58:00,
2013-04-02 11:13:00,68.7,64.0,30.13,WNW,293,3.0,11.0,86,0.00,,,0.00,weatherlink.com 1.10,2013-04-02 15:13:00,
2013-04-02 11:28:00,69.7,65.0,30.12,WNW,294,4.0,8.0,85,0.00,,,0.00,weatherlink.com 1.10,2013-04-02 15:28:00,
2013-04-02 11:43:00,69.8,65.0,30.13,West,281,8.0,9.0,84,0.00,,,0.00,weatherlink.com 1.10,2013-04-02 15:43:00,
2013-04-02 11:58:00,69.3,65.0,30.12,West,260,6.0,10.0,85,0.00,,,0.00,weatherlink.com 1.10,2013-04-02 15:58:00,
2013-04-02 12:13:00,69.4,64.0,30.12,WNW,301,6.0,9.0,84,0.00,,,0.00,weatherlink.com 1.10,2013-04-02 16:13:00,
2013-04-02 12:28:00,69.2,65.0,30.12,WNW,288,6.0,11.0,85,0.00,,,0.00,weatherlink.com 1.10,2013-04-02 16:28:00,
2013-04-02 12:43:00,69.2,65.0,30.12,West,270,9.0,10.0,87,0.00,,,0.00,weatherlink.com 1.10,2013-04-02 16:43:00,
2013-04-02 12:58:00,69.4,65.0,30.11,WSW,258,5.0,11.0,85,0.00,,,0.00,weatherlink.com 1.10,2013-04-02 16:58:00,
2013-04-02 13:13:00,69.5,64.0,30.11,WNW,284,7.0,12.0,83,0.00,,,0.00,weatherlink.com 1.10,2013-04-02 17:13:00,
2013-04-02 13:29:00,69.9,65.0,30.11,WNW,295,8.0,10.0,84,0.00,,,0.00,weatherlink.com 1.10,2013-04-02 17:29:00,
2013-04-02 13:43:00,70.0,65.0,30.10,WNW,296,8.0,11.0,83,0.00,,,0.00,weatherlink.com 1.10,2013-04-02 17:43:00,
2013-04-02 13:59:00,69.6,65.0,30.09,West,277,9.0,12.0,85,0.00,,,0.00,weatherlink.com 1.10,2013-04-02 17:59:00,
2013-04-02 14:29:00,69.8,65.0,30.09,West,278,7.0,11.0,84,0.00,,,0.00,weatherlink.com 1.10,2013-04-02 18:29:00,
2013-04-02 14:44:00,70.1,65.0,30.08,West,264,6.0,9.0,85,0.00,,,0.00,weatherlink.com 1.10,2013-04-02 18:44:00,
2013-04-02 14:59:00,69.7,65.0,30.08,WNW,288,5.0,9.0,86,0.00,,,0.00,weatherlink.com 1.10,2013-04-02 18:59:00,
2013-04-02 15:14:00,69.6,65.0,30.07,West,280,4.0,10.0,85,0.00,,,0.00,weatherlink.com 1.10,2013-04-02 19:14:00,
2013-04-02 15:29:00,69.5,65.0,30.06,West,261,6.0,9.0,85,0.00,,,0.00,weatherlink.com 1.10,2013-04-02 19:29:00,
2013-04-02 15:44:00,69.8,66.0,30.06,West,271,6.0,10.0,86,0.00,,,0.00,weatherlink.com 1.10,2013-04-02 19:44:00,
2013-04-02 15:59:00,69.7,65.0,30.06,WSW,257,7.0,9.0,84,0.00,,,0.00,weatherlink.com 1.10,2013-04-02 19:59:00,
2013-04-02 16:14:00,69.8,66.0,30.06,WNW,290,6.0,9.0,87,0.00,,,0.00,weatherlink.com 1.10,2013-04-02 20:14:00,
2013-04-02 16:29:00,70.1,65.0,30.06,WNW,287,4.0,8.0,84,0.00,,,0.00,weatherlink.com 1.10,2013-04-02 20:29:00,
2013-04-02 16:44:00,69.9,65.0,30.06,West,274,3.0,7.0,85,0.00,,,0.00,weatherlink.com 1.10,2013-04-02 20:44:00,
2013-04-02 16:59:00,70.6,65.0,30.06,WSW,240,7.0,8.0,83,0.00,,,0.00,weatherlink.com 1.10,2013-04-02 20:59:00,
2013-04-02 17:14:00,69.7,65.0,30.06,WNW,295,5.0,7.0,84,0.00,,,0.00,weatherlink.com 1.10,2013-04-02 21:14:00,
2013-04-02 17:44:00,69.6,65.0,30.06,West,280,6.0,9.0,85,0.00,,,0.00,weatherlink.com 1.10,2013-04-02 21:44:00,
2013-04-02 17:59:00,69.6,65.0,30.06,West,266,5.0,10.0,86,0.00,,,0.00,weatherlink.com 1.10,2013-04-02 21:59:00,
2013-04-02 18:14:00,69.6,65.0,30.06,West,271,4.0,11.0,86,0.00,,,0.00,weatherlink.com 1.10,2013-04-02 22:14:00,
2013-04-02 18:29:00,69.7,65.0,30.06,WNW,287,8.0,12.0,85,0.00,,,0.00,weatherlink.com 1.10,2013-04-02 22:29:00,
2013-04-02 18:44:00,69.3,65.0,30.06,WNW,297,6.0,11.0,86,0.00,,,0.00,weatherlink.com 1.10,2013-04-02 22:44:00,
2013-04-02 18:59:00,69.4,65.0,30.06,WNW,283,6.0,10.0,85,0.00,,,0.00,weatherlink.com 1.10,2013-04-02 22:59:00,
2013-04-02 19:14:00,69.1,64.0,30.06,WNW,295,4.0,9.0,84,0.00,,,0.00,weatherlink.com 1.10,2013-04-02 23:14:00,
2013-04-02 19:29:00,68.9,64.0,30.06,WNW,288,6.0,8.0,84,0.00,,,0.00,weatherlink.com 1.10,2013-04-02 23:29:00,
2013-04-02 19:45:00,68.2,64.0,30.06,West,277,4.0,7.0,87,0.00,,,0.00,weatherlink.com 1.10,2013-04-02 23:45:00,
2013-04-02 19:59:00,67.9,64.0,30.07,NW,312,4.0,7.0,87,0.00,,,0.00,weatherlink.com 1.10,2013-04-02 23:59:00,
2013-04-02 20:14:00,67.8,64.0,30.07,West,273,3.0,6.0,87,0.00,,,0.00,weatherlink.com 1.10,2013-04-03 00:14:00,
2013-04-02 20:29:00,67.8,64.0,30.07,West,273,2.0,5.0,87,0.00,,,0.00,weatherlink.com 1.10,2013-04-03 00:29:00,
2013-04-02 20:59:00,67.6,63.0,30.08,WNW,285,2.0,5.0,86,0.00,,,0.00,weatherlink.com 1.10,2013-04-03 00:59:00,
2013-04-02 21:14:00,67.7,64.0,30.07,West,269,2.0,4.0,87,0.00,,,0.00,weatherlink.com 1.10,2013-04-03 01:14:00,
2013-04-02 21:29:00,67.5,64.0,30.07,West,269,1.0,2.0,87,0.00,,,0.00,weatherlink.com 1.10,2013-04-03 01:29:00,
2013-04-02 21:44:00,67.4,64.0,30.08,NW,321,0.0,1.0,87,0.00,,,0.00,weatherlink.com 1.10,2013-04-03 01:44:00,
2013-04-02 21:59:00,67.3,64.0,30.07,NNE,13,0.0,1.0,88,0.00,,,0.00,weatherlink.com 1.10,2013-04-03 01:59:00,
2013-04-02 22:14:00,67.1,64.0,30.07,East,98,0.0,1.0,88,0.00,,,0.00,weatherlink.com 1.10,2013-04-03 02:14:00,
2013-04-02 22:29:00,67.1,64.0,30.08,SSW,197,1.0,3.0,89,0.00,,,0.00,weatherlink.com 1.10,2013-04-03 02:29:00,
2013-04-02 22:44:00,67.3,64.0,30.10,NE,50,5.0,5.0,89,0.00,,,0.00,weatherlink.com 1.10,2013-04-03 02:44:00,
2013-04-02 22:59:00,67.5,64.0,30.10,SSE,149,0.0,3.0,88,0.00,,,0.00,weatherlink.com 1.10,2013-04-03 02:59:00,
2013-04-02 23:14:00,67.2,64.0,30.11,ESE,108,0.0,2.0,88,0.00,,,0.00,weatherlink.com 1.10,2013-04-03 03:14:00,
2013-04-02 23:29:00,67.4,64.0,30.11,WSW,240,2.0,3.0,89,0.00,,,0.00,weatherlink.com 1.10,2013-04-03 03:29:00,
2013-04-02 23:44:00,67.5,64.0,30.12,West,277,1.0,4.0,88,0.00,,,0.00,weatherlink.com 1.10,2013-04-03 03:44:00,
2013-04-02 23:59:00,67.6,63.0,30.11,West,259,3.0,4.0,86,0.00,,,0.00,weatherlink.com 1.10,2013-04-03 03:59:00,